Location: Cool Valley
(38.7278°N, 90.3101°W)
Time: 09:24:08
(UTC+00:00)

Daily predictions for brighter satellites

Satellite Brightness Start Highest point End
(mag) Time Altitude Azimuth Time Altitude Azimuth Time Altitude Azimuth
Cosmos 1869 4.3 12:00:04 10° SW 12:02:45 20° WNW 12:05:27 10° NNW
Lacrosse 4 Rocket 3.9 12:03:32 10° N 12:06:25 19° NE 12:09:18 10° E
Cosmos 1315 Rocket 3.1 12:06:23 10° S 12:10:04 66° E 12:13:47 10° NNE
Hubble Space Telescope 3.1 12:11:53 10° SSW 12:14:00 14° S 12:16:06 10° SE
Cosmos 2360 Rocket 2.2 12:09:39 10° SSW 12:15:13 66° WNW 12:20:49 10° NNE
Cosmos 2278 4.2 12:10:41 10° SW 12:15:56 39° WNW 12:21:12 10° N
USA 229 DEB 4.0 12:10:53 10° SSW 12:16:35 63° ESE 12:22:53 10° NE
USA 229 4.0 12:10:58 10° SSW 12:16:40 62° ESE 12:22:57 10° NE
DELTA 2 R/B (1) 3.6 12:11:41 10° WSW 12:17:16 87° SSE 12:22:51 10° E
ATLAS 3B R/B 3.7 12:11:22 10° SSW 12:18:39 61° ESE 12:26:20 10° NE
Cosmos 1356 Rocket 3.6 12:15:37 10° S 12:19:24 69° E 12:23:14 10° NNE
Cosmos 2333 4.2 12:15:44 10° SSW 12:21:25 74° WNW 12:27:05 10° NNE
GP-B 4.0 12:18:39 10° NNW 12:22:18 26° W 12:25:57 10° SW
Cosmos 1461 2.5 12:19:17 10° NW 12:22:57 69° WSW 12:26:30 10° SSE
Cosmos 1802 Rocket 4.0 12:17:53 10° SSW 12:24:00 63° W 12:30:17 10° N
Cosmos 1725 Rocket 4.0 12:20:17 10° SSW 12:26:23 66° W 12:32:34 10° N
